Simultaneous Nadir Overpasses (SNOs) Predictions

Prediction of SNOs between METOP-A and NPP Satellite Orbit:

Table of predicted SNOs for the next 14.0 days since TLE Epoch: 6/16/2015
Index Date (METOP-A) Time (METOP-A) Lat,Lon (METOP-A) SZA (METOP-A ) Date (NPP) Time (NPP) Lat,Lon (NPP) SZA (NPP ) Distance(km) Time Diff (sec)
1 06/25/2015 08:14:24 73.71, 50.08 50.37 06/25/2015 08:13:16 73.71, 47.65 50.51 75.56 68
2 06/25/2015 09:05:08 -73.60,-142.85 129.73 06/25/2015 09:03:58 -73.61,-144.78 129.61 60.65 70
3 06/25/2015 09:55:52 73.38, 23.99 50.08 06/25/2015 09:54:40 73.42, 22.95 50.19 33.30 72
4 06/25/2015 10:46:35 -73.32,-168.81 129.97 06/25/2015 10:45:22 -73.32,-169.50 129.93 21.83 73
5 06/25/2015 11:37:18 73.16, -1.85 49.88 06/25/2015 11:36:05 73.18, -1.88 49.92 2.58 73
6 06/25/2015 12:28:00 -73.15, 165.46 130.13 06/25/2015 12:26:49 -73.17, 165.45 130.09 2.70 71
7 06/25/2015 13:18:40 73.13, -27.24 49.86 06/25/2015 13:17:34 73.13, -27.16 49.88 2.60 66
8 06/25/2015 14:09:22 -73.13, 140.07 130.15 06/25/2015 14:08:18 -73.13, 140.16 130.13 3.12 64
9 06/25/2015 15:00:01 73.16, -52.53 49.89 06/25/2015 14:59:04 73.14, -52.55 49.89 1.91 57
10 06/25/2015 15:50:43 -73.15, 114.79 130.12 06/25/2015 15:49:48 -73.14, 114.77 130.12 1.50 55
11 06/25/2015 16:41:23 73.13, -77.92 49.87 06/25/2015 16:40:34 73.15, -77.94 49.90 1.99 49
12 06/25/2015 17:32:05 -73.13, 89.39 130.14 06/25/2015 17:31:18 -73.14, 89.39 130.11 2.09 47
13 06/25/2015 18:22:45 73.11,-103.31 49.85 06/25/2015 18:22:03 73.11,-103.22 49.85 2.93 42
14 06/25/2015 19:13:27 -73.10, 64.00 130.16 06/25/2015 19:12:47 -73.10, 64.10 130.16 3.39 40
15 06/25/2015 20:04:06 73.13,-128.60 49.87 06/25/2015 20:03:33 73.11,-128.61 49.86 2.26 33
16 06/25/2015 20:54:48 -73.13, 38.71 130.14 06/25/2015 20:54:17 -73.11, 38.71 130.15 2.03 31
17 06/25/2015 21:45:28 73.11,-153.99 49.85 06/25/2015 21:45:03 73.12,-154.00 49.87 1.43 25
18 06/25/2015 22:36:10 -73.10, 13.32 130.16 06/25/2015 22:35:47 -73.12, 13.32 130.14 1.51 23
19 06/25/2015 23:26:49 73.08,-179.38 49.83 06/25/2015 23:26:31 73.08,-179.28 49.83 3.33 18
20 06/26/2015 00:17:30 -73.13, -11.96 130.13 06/26/2015 00:17:16 -73.12, -12.07 130.13 3.35 14
21 06/26/2015 01:08:10 73.11, 155.33 49.86 06/26/2015 01:08:01 73.08, 155.33 49.84 2.69 9
22 06/26/2015 01:58:52 -73.10, -37.36 130.15 06/26/2015 01:58:45 -73.08, -37.35 130.17 2.61 7
23 06/26/2015 02:49:32 73.08, 129.94 49.84 06/26/2015 02:49:31 73.09, 129.94 49.85 0.90 1
24 06/26/2015 03:40:14 -73.08, -62.75 130.17 06/26/2015 03:40:15 -73.09, -62.74 130.16 1.04 1
25 06/26/2015 04:30:53 73.11, 104.65 49.86 06/26/2015 04:31:01 73.10, 104.55 49.86 3.63 8
26 06/26/2015 05:21:35 -73.10, -88.03 130.15 06/26/2015 05:21:45 -73.09, -88.13 130.15 3.18 10
27 06/26/2015 06:12:15 73.08, 79.26 49.84 06/26/2015 06:12:30 73.06, 79.26 49.81 3.16 15
28 06/26/2015 07:02:57 -73.08,-113.43 130.16 06/26/2015 07:03:14 -73.05,-113.41 130.20 3.20 17
29 06/26/2015 07:53:37 73.06, 53.87 49.82 06/26/2015 07:54:00 73.06, 53.87 49.82 0.52 23
30 06/26/2015 08:44:19 -73.05,-138.82 130.18 06/26/2015 08:44:44 -73.06,-138.80 130.19 0.83 25
31 06/26/2015 09:34:58 73.08, 28.58 49.85 06/26/2015 09:35:30 73.07, 28.48 49.83 3.51 32
32 06/26/2015 10:25:40 -73.08,-164.10 130.16 06/26/2015 10:26:14 -73.06,-164.19 130.18 3.14 34
33 06/26/2015 11:16:20 73.06, 3.19 49.83 06/26/2015 11:17:00 73.08, 3.09 49.84 3.62 40
34 06/26/2015 12:07:02 -73.05, 170.50 130.18 06/26/2015 12:07:44 -73.07, 170.42 130.17 3.21 42
35 06/26/2015 12:57:42 73.03, -22.21 49.81 06/26/2015 12:58:29 73.03, -22.19 49.80 0.60 47
36 06/26/2015 13:48:24 -73.03, 145.11 130.20 06/26/2015 13:49:13 -73.03, 145.14 130.21 1.03 49
37 06/26/2015 14:39:03 73.06, -47.49 49.83 06/26/2015 14:39:59 73.04, -47.58 49.81 3.48 56
38 06/26/2015 15:29:45 -73.06, 119.82 130.17 06/26/2015 15:30:43 -73.04, 119.75 130.20 3.23 58
39 06/26/2015 16:20:25 73.04, -72.88 49.81 06/26/2015 16:21:29 73.05, -72.97 49.82 3.11 64
40 06/26/2015 17:11:07 -73.03, 94.43 130.19 06/26/2015 17:12:13 -73.04, 94.36 130.19 2.66 66
41 06/26/2015 18:01:47 73.01, -98.28 49.79 06/26/2015 18:02:58 73.01, -98.25 49.77 1.03 71
42 06/26/2015 18:52:29
